indice_tiempo,asalariados_priv_sin_estac_buenos_aires,asalariados_priv_sin_estac_caba,asalariados_priv_sin_estac_catamarca,asalariados_priv_sin_estac_chaco,asalariados_priv_sin_estac_chubut,asalariados_priv_sin_estac_cordoba,asalariados_priv_sin_estac_corrientes,asalariados_priv_sin_estac_entre_rios,asalariados_priv_sin_estac_formosa,asalariados_priv_sin_estac_jujuy,asalariados_priv_sin_estac_la_pampa,asalariados_priv_sin_estac_la_rioja,asalariados_priv_sin_estac_mendoza,asalariados_priv_sin_estac_misiones,asalariados_priv_sin_estac_neuquen,asalariados_priv_sin_estac_rio_negro,asalariados_priv_sin_estac_salta,asalariados_priv_sin_estac_san_juan,asalariados_priv_sin_estac_san_luis,asalariados_priv_sin_estac_santa_cruz,asalariados_priv_sin_estac_santa_fe,asalariados_priv_sin_estac_santiago_estero,asalariados_priv_sin_estac_tierra_fuego,asalariados_priv_sin_estac_tucuman
2009-01-01,1750.519,1470.603,30.538,61.064,92.658,452.359,63.922,121.003,20.974,48.019,35.671,27.38,223.045,85.17,91.009,98.952,98.455,73.197,51.705,53.902,457.895,43.076,27.441,144.038
2009-02-01,1743.601,1467.801,30.46,61.316,92.293,452.986,64.196,121.269,21.07,48.488,35.655,25.892,223.145,85.477,90.248,97.811,98.674,73.098,51.145,53.749,455.587,43.072,26.87,145.612
2009-03-01,1738.977,1461.466,30.951,61.731,92.153,451.888,64.666,121.299,21.081,48.737,35.486,25.285,221.249,84.73,88.786,96.502,99.258,73.383,50.983,53.287,453.777,42.885,26.441,147.19
2009-04-01,1737.17,1457.897,30.27,61.878,91.676,450.423,64.103,121.578,21.154,49.086,35.448,25.048,216.966,85.141,87.293,92.151,100.422,73.279,51.07,53.177,451.901,42.393,25.987,149.604
2009-05-01,1736.981,1455.55,29.788,61.746,91.301,448.8,64.316,122.228,21.313,50.059,35.14,25.551,215.773,85.815,87.119,93.556,100.925,73.135,51.038,52.981,449.835,42.074,25.567,148.379
2009-06-01,1738.602,1455.026,29.087,61.526,90.451,449.078,65.109,122.519,21.63,51.488,35.208,25.894,219.39,85.974,86.94,93.72,101.448,71.981,50.677,52.309,448.646,42.694,25.519,150.781
2009-07-01,1741.991,1453.811,29.4,61.703,90.139,449.769,64.921,123.103,22.327,52.16,35.413,26.883,219.218,86.676,86.621,93.081,102.008,72.658,51.281,52.284,449.048,42.99,25.207,152.312
2009-08-01,1740.089,1453.381,29.269,61.61,89.787,451.048,64.897,123.084,21.732,51.675,35.714,27.281,218.89,86.686,86.162,92.429,101.785,71.706,51.545,52.086,447.854,42.311,25.183,149.988
2009-09-01,1742.201,1453.832,29.469,61.348,89.825,452.201,65.107,122.964,21.794,52.381,35.993,27.474,219.159,86.626,85.972,92.751,102.165,71.271,52.198,52.285,452.366,42.67,25.717,150.202
2009-10-01,1749.122,1454.457,29.49,61.279,89.591,453.203,65.23,125.499,21.66,51.594,35.893,27.176,219.361,86.489,85.052,91.741,102.686,71.181,52.023,51.669,453.432,42.668,26.048,151.091
2009-11-01,1748.497,1455.18,30.014,59.132,89.164,451.468,66.332,127.53,21.699,51.474,35.771,27.363,219.457,86.027,85.719,93.251,102.165,71.18,52.655,51.743,453.035,42.777,26.463,152.494
2009-12-01,1754.151,1457.733,29.567,59.384,88.894,455.33,65.123,123.251,21.925,50.964,35.343,27.399,220.074,86.239,85.803,93.883,102.046,71.885,52.87,52.133,454.234,42.83,26.936,147.92
2010-01-01,1751.166,1461.197,29.398,60.004,89.166,459.556,64.835,122.382,21.923,50.545,35.473,27.92,221.643,86.151,85.664,95.79,102.276,72.265,52.944,52.265,454.263,43.538,27.688,144.285
2010-02-01,1757.242,1463.792,31.565,60.495,89.841,461.479,65.354,122.814,22.115,51.033,35.185,28.27,222.683,86.64,85.856,98.072,103.469,73.568,53.659,52.241,456.93,43.703,28.162,146.697
2010-03-01,1767.067,1468.167,31.407,59.784,90.107,464.04,65.75,124.622,22.223,51.166,35.001,28.815,222.904,86.594,86.307,98.658,104.481,72.94,53.662,52.403,458.202,44.039,28.502,144.046
2010-04-01,1774.031,1470.692,31.526,59.842,90.397,466.126,65.649,124.848,22.355,51.581,34.96,28.852,222.784,86.614,86.311,97.199,104.933,73.192,53.633,52.142,458.63,44.737,28.639,147.391
2010-05-01,1781.31,1474.111,31.898,59.445,90.504,467.717,65.918,124.854,22.364,51.823,34.565,28.49,223.457,86.612,86.618,95.904,105.012,73.234,53.415,51.994,459.804,44.797,28.983,148.659
2010-06-01,1787.927,1477.832,31.459,59.476,90.764,469.181,65.948,125.95,22.281,52.388,34.443,28.652,224.973,87.06,86.438,96.315,105.267,73.853,53.714,52.441,461.085,44.935,29.353,148.916
2010-07-01,1793.774,1480.95,30.875,59.534,91.874,470.238,65.655,126.594,22.537,52.482,34.251,28.648,225.053,87.249,86.711,96.091,104.886,74.043,53.818,52.953,463.022,45.521,29.026,150.862
2010-08-01,1803.161,1484.433,30.081,60.266,91.538,472.324,65.71,127.042,22.855,52.66,34.13,28.177,225.814,88.034,87.33,96.12,105.252,74.849,53.466,53.203,464.023,46.107,29.824,151.139
2010-09-01,1807.856,1491.31,30.145,60.99,92.287,473.813,66.049,127.193,23.142,52.979,34.192,28.611,227.016,89.013,87.509,94.797,106.216,75.638,53.83,53.783,466.542,46.813,30.419,152.343
2010-10-01,1813.018,1494.827,29.754,61.072,92.013,474.596,66.155,127.269,23.562,52.948,34.161,29.322,227.588,89.081,87.776,94.027,105.723,76.655,54.127,53.531,467.81,46.044,30.812,150.402
2010-11-01,1815.307,1499.34,30.351,61.679,92.691,476.449,66.461,127.658,23.764,52.92,34.263,29.396,230.26,89.017,87.889,95.432,105.007,76.711,54.443,54.596,469.17,46.313,31.082,151.348
2010-12-01,1830.831,1502.909,30.194,62.067,93.516,480.35,67.003,127.274,23.937,52.731,34.498,29.527,232.853,90.019,88.581,95.433,105.926,78.122,54.486,55.037,472.241,46.673,31.41,151.646
2011-01-01,1838.861,1504.882,30.208,62.524,93.963,482.563,67.524,127.676,24.194,53.201,34.965,29.727,233.69,91.23,88.955,99.68,107.472,79.724,54.586,55.795,474.246,46.551,31.718,150.568
2011-02-01,1846.386,1508.865,31.962,63.202,94.25,485.044,67.972,127.937,24.406,53.246,35.43,30.243,235.245,92.728,89.238,100.791,108.655,79.902,54.647,56.663,476.17,46.824,32.249,153.39
2011-03-01,1850.189,1508.719,32.605,63.786,94.774,485.779,68.339,129.766,24.711,53.896,35.88,30.866,235.26,93.133,89.228,101.033,109.392,79.086,54.459,57.373,477.969,46.821,32.339,155.272
2011-04-01,1856.45,1517.535,32.302,64.311,95.189,490.49,69.115,131.182,25.027,54.089,36.101,31.406,237.126,94.001,89.446,101.035,109.606,80.845,54.616,57.791,480.774,47.071,33.184,155.364
2011-05-01,1860.688,1523.229,32.098,65.73,94.963,493.513,69.447,131.85,25.329,54.483,36.376,31.346,238.977,94.319,89.647,100.386,110.415,81.65,54.906,57.979,482.84,47.632,33.656,156.576
2011-06-01,1870.239,1525.217,31.849,65.984,95.24,494.615,69.641,132.392,25.985,54.307,36.48,31.268,238.585,94.503,90.193,100.119,110.957,82.749,55.038,58.586,485.362,48.066,34.036,156.704
2011-07-01,1875.17,1529.458,31.236,66.126,95.035,496.924,70.021,133.307,26.173,54.515,36.602,30.501,240.491,95.051,89.881,100.174,111.298,83.131,55.103,58.272,487.212,47.886,34.775,156.476
2011-08-01,1879.962,1534.09,30.881,66.033,95.015,497.712,70.705,134.303,26.496,54.879,36.696,30.364,241.545,95.459,90.207,99.999,111.903,83.788,55.503,58.166,489.176,48.097,35.118,158.946
2011-09-01,1890.734,1533.877,30.803,65.674,94.776,499.431,70.727,134.117,26.384,54.998,36.737,30.18,241.465,95.892,90.479,100.583,111.222,84.231,55.461,59.014,490.196,47.877,35.282,158.646
2011-10-01,1893.036,1534.241,30.985,66.769,94.443,501.235,71.104,134.719,26.309,55.514,36.785,30.328,243.024,96.55,90.539,100.677,111.777,84.7,55.959,59.56,491.198,48.239,35.512,161.688
2011-11-01,1900.691,1537.305,31.062,66.685,94.714,502.389,71.529,135.88,26.344,55.44,36.658,30.228,242.63,97.298,90.561,100.712,112.206,85.521,55.859,59.905,492.551,48.0,35.779,161.172
2011-12-01,1901.489,1537.23,30.905,66.718,94.856,501.807,71.188,135.691,26.152,55.781,36.344,30.26,242.046,96.904,90.288,100.148,111.308,85.411,56.117,60.216,492.956,47.915,35.961,161.593
2012-01-01,1909.71,1533.468,30.732,66.86,94.46,499.433,71.156,135.64,26.226,55.756,36.048,30.505,240.241,96.509,89.545,100.15,110.488,85.82,56.239,60.545,492.591,47.782,35.492,161.858
2012-02-01,1909.379,1530.971,30.334,67.056,94.039,498.06,70.988,135.867,26.465,55.861,35.8,27.715,242.085,93.491,89.327,99.821,109.742,85.801,56.245,60.707,492.515,47.527,35.819,161.711
2012-03-01,1918.23,1533.23,30.448,67.434,94.151,497.999,71.064,135.584,26.16,55.4,35.561,28.699,243.458,96.203,90.058,100.848,108.834,86.324,56.446,61.194,492.506,47.481,36.506,159.597
2012-04-01,1910.502,1529.983,29.997,67.485,93.914,496.364,71.121,134.644,25.936,55.08,35.44,28.385,244.213,95.859,90.71,100.233,108.882,86.49,56.383,61.255,492.477,47.098,36.8,156.752
2012-05-01,1915.007,1529.067,29.945,67.697,94.395,496.4,70.909,135.379,25.889,54.968,35.516,28.877,243.816,95.963,90.811,101.141,109.33,87.125,56.395,61.237,492.37,47.033,37.208,161.126
2012-06-01,1913.592,1527.065,29.959,67.551,94.67,496.96,71.074,134.581,25.483,54.786,35.58,28.889,244.554,96.034,91.256,101.002,109.73,87.302,56.251,60.969,491.706,46.718,37.43,161.926
2012-07-01,1914.826,1524.772,30.172,67.558,94.618,495.991,71.236,134.168,25.034,54.815,35.43,29.193,244.697,95.713,91.433,101.026,110.254,87.812,56.241,60.664,491.24,47.139,37.65,161.446
2012-08-01,1916.291,1522.907,30.689,67.211,94.963,496.347,70.975,134.087,24.975,54.456,35.437,29.548,244.704,95.972,91.347,101.557,109.296,88.336,55.896,60.655,489.544,47.221,37.629,161.205
2012-09-01,1914.454,1521.556,30.995,66.844,94.644,496.343,70.93,133.901,24.886,54.99,35.371,29.946,244.667,96.078,91.971,101.456,109.463,89.056,55.817,60.538,490.287,47.452,37.874,160.709
2012-10-01,1916.462,1522.046,31.193,66.919,94.8,496.684,70.677,134.791,24.854,54.979,35.207,29.826,244.616,96.081,92.326,101.247,109.253,89.071,55.742,60.69,490.681,47.694,37.945,158.955
2012-11-01,1913.625,1521.052,31.17,67.109,94.983,498.156,71.039,134.807,24.875,55.104,35.747,30.041,245.294,97.528,92.593,101.577,108.891,89.512,55.691,60.576,489.644,48.129,38.225,158.912
2012-12-01,1927.338,1523.627,31.12,67.612,94.286,499.682,71.252,135.485,25.038,54.884,36.164,30.568,245.702,97.921,93.013,102.004,109.14,90.54,55.636,60.799,491.485,48.183,38.877,159.001
2013-01-01,1924.451,1523.638,31.179,67.705,94.205,499.168,71.163,135.826,25.277,54.606,36.586,30.582,244.967,99.032,93.891,103.544,109.069,90.868,55.435,60.669,492.84,48.161,39.272,159.368
2013-02-01,1927.451,1522.642,31.496,68.185,94.391,499.351,71.204,135.664,25.363,54.436,36.498,30.881,247.169,99.944,94.481,102.715,108.466,91.87,55.443,61.151,493.894,48.176,39.53,159.273
2013-03-01,1928.23,1520.856,31.476,68.494,93.942,500.421,71.156,135.392,25.367,54.194,36.398,31.045,249.365,99.745,94.98,102.917,108.204,92.701,55.774,61.255,494.399,48.786,39.872,161.581
2013-04-01,1929.053,1521.59,31.72,68.816,94.287,501.109,71.185,135.778,25.553,55.966,36.506,31.151,250.365,99.58,95.2,102.42,108.6,93.237,56.279,61.259,494.831,49.04,39.668,163.4
2013-05-01,1928.309,1520.341,31.845,69.025,94.617,501.152,71.045,135.139,25.625,56.24,36.516,30.787,246.279,99.824,95.582,104.081,108.799,92.784,56.169,61.114,496.196,48.953,39.905,160.884
2013-06-01,1926.609,1520.716,31.859,69.645,93.948,501.274,71.029,135.553,25.482,56.15,36.455,31.261,243.178,100.242,95.913,104.478,108.422,91.812,56.259,60.793,495.064,48.98,40.084,158.962
2013-07-01,1927.258,1520.931,32.115,70.414,94.547,502.156,70.985,135.647,25.822,56.248,36.51,31.607,243.728,100.503,97.084,105.056,108.801,91.424,56.551,60.758,495.357,48.858,40.116,158.938
2013-08-01,1935.531,1519.668,32.514,72.044,94.823,502.806,71.537,136.14,25.905,56.43,36.592,31.355,244.552,100.327,97.656,104.739,110.084,89.969,56.791,60.775,495.621,48.731,40.311,157.941
2013-09-01,1932.868,1519.399,32.022,72.142,94.959,503.165,71.059,135.054,25.75,56.155,36.362,31.417,244.39,100.715,97.8,104.732,109.618,88.724,56.88,60.757,495.404,48.878,40.284,158.25
2013-10-01,1931.153,1519.494,31.924,72.996,95.653,503.699,71.294,132.718,26.665,55.949,36.249,31.381,242.805,101.484,98.064,104.352,112.032,91.409,57.08,60.784,495.531,50.725,40.465,151.602
2013-11-01,1933.063,1519.264,31.622,73.783,95.672,502.748,71.487,133.265,27.317,56.373,36.145,31.204,241.998,102.613,98.999,103.693,112.521,87.177,57.334,61.208,496.077,50.876,40.427,156.953
2013-12-01,1935.081,1518.961,31.835,72.938,96.11,501.181,71.69,135.206,27.343,56.238,36.021,31.53,242.134,101.171,99.898,104.732,111.797,86.05,57.177,61.128,496.038,51.007,40.318,156.01
2014-01-01,1930.25,1519.951,31.452,72.931,96.567,500.626,71.786,135.827,27.692,55.935,35.815,30.973,240.522,101.108,101.325,105.101,114.0,84.333,57.803,60.387,495.546,51.345,39.374,156.459
2014-02-01,1931.477,1518.314,31.234,72.948,97.025,499.892,71.831,135.326,27.434,56.045,35.704,29.405,240.56,101.308,101.809,104.699,113.376,83.858,57.509,61.114,494.521,51.439,38.702,156.45
2014-03-01,1926.9,1514.422,30.994,72.546,96.343,496.207,71.446,135.378,27.303,56.131,35.712,29.167,241.879,101.084,102.175,104.475,113.599,85.369,56.859,61.116,492.597,51.212,38.858,153.345
2014-04-01,1928.319,1513.579,31.314,72.641,96.862,495.263,71.606,135.728,27.284,56.062,35.692,29.7,244.517,100.962,102.447,104.76,112.596,82.12,57.023,61.679,494.132,52.238,38.938,151.497
2014-05-01,1929.08,1513.686,31.839,72.656,97.659,496.388,71.812,135.676,27.312,56.096,35.638,29.663,242.425,100.991,103.294,105.369,114.001,81.758,57.163,62.116,494.874,51.921,38.75,153.727
2014-06-01,1929.341,1513.126,31.871,73.023,98.238,496.501,71.728,136.069,27.342,56.428,35.767,29.995,242.543,101.037,103.809,105.848,114.37,81.612,57.623,62.549,495.426,52.152,38.809,155.293
2014-07-01,1928.072,1511.153,32.082,73.042,98.433,496.319,71.461,135.585,27.224,56.791,35.813,30.309,243.107,101.448,104.557,106.723,114.593,81.816,57.71,62.612,496.538,52.466,38.886,155.951
2014-08-01,1925.051,1514.796,32.075,72.8,98.288,496.264,72.079,135.763,25.425,56.646,35.822,30.807,242.192,101.038,105.017,106.433,114.925,82.119,57.686,62.506,495.481,50.452,38.896,155.855
2014-09-01,1925.857,1517.677,31.856,73.008,98.916,495.298,72.484,136.215,25.514,57.175,36.07,31.03,242.474,101.858,105.515,106.585,116.495,82.104,57.924,62.594,495.8,50.581,39.056,157.902
2014-10-01,1930.412,1516.864,32.275,72.874,99.145,494.734,72.567,136.491,25.576,57.259,36.21,31.087,244.452,102.4,106.677,107.132,115.57,82.651,57.786,62.898,495.481,50.637,38.617,157.087
2014-11-01,1929.986,1518.598,32.35,73.148,99.547,493.76,72.614,135.758,25.673,57.474,36.277,31.214,243.814,103.355,107.67,107.358,115.656,82.506,58.168,62.697,496.205,50.549,38.482,158.745
2014-12-01,1933.796,1518.975,32.262,73.744,99.771,494.134,72.908,135.307,26.105,58.427,36.193,31.226,243.313,104.67,108.51,107.99,117.149,81.987,58.882,63.076,496.812,50.789,37.878,160.204
2015-01-01,1940.076,1522.183,32.231,73.839,100.215,496.242,73.215,136.722,26.144,58.788,36.344,31.664,245.014,105.237,109.746,107.708,116.704,82.596,59.631,62.117,497.62,50.947,37.652,160.282
2015-02-01,1944.194,1524.498,32.633,74.088,100.286,497.344,73.473,137.688,26.442,58.783,36.19,31.901,246.15,105.781,110.703,108.364,118.422,82.491,60.387,62.617,498.042,50.992,37.938,161.125
2015-03-01,1947.842,1528.091,32.497,74.531,100.675,497.417,74.631,137.446,26.909,58.607,36.241,31.925,246.364,105.967,111.667,107.966,118.824,81.99,60.745,62.961,499.103,50.764,38.112,159.79
2015-04-01,1958.874,1535.588,32.674,75.105,101.166,500.384,75.015,137.998,27.168,58.482,36.598,32.529,248.529,106.136,112.473,109.285,118.707,83.06,61.117,63.796,502.129,51.012,39.003,159.803
2015-05-01,1960.161,1535.028,32.551,75.859,101.29,500.865,75.465,138.057,27.38,58.198,36.78,32.441,247.295,106.514,112.786,109.999,118.558,82.72,61.691,64.065,501.444,51.055,39.502,158.616
2015-06-01,1965.437,1539.592,32.546,75.518,101.379,501.571,75.986,138.035,27.8,57.869,36.799,32.213,248.748,107.174,113.202,110.168,118.474,83.358,61.42,64.39,503.515,51.102,39.837,159.58
2015-07-01,1969.096,1540.877,32.249,75.884,101.471,502.722,76.638,138.397,28.164,57.887,37.056,32.295,248.206,107.717,113.586,110.28,117.534,82.498,61.639,64.539,503.16,50.916,40.16,160.629
2015-08-01,1971.204,1541.58,32.313,76.843,101.474,502.722,77.193,139.741,28.693,58.105,37.201,32.144,247.602,109.074,114.711,110.363,118.358,82.311,62.059,64.741,504.132,51.185,40.693,160.769
2015-09-01,1970.068,1541.807,32.125,77.302,101.278,504.276,77.012,138.443,28.537,57.398,37.246,31.603,247.395,109.091,114.588,109.978,118.691,82.009,62.048,64.786,503.553,50.771,41.203,161.27
2015-10-01,1971.284,1542.427,31.864,76.425,101.413,504.099,76.901,137.622,28.652,57.65,37.264,31.517,246.003,108.566,114.483,109.995,117.64,81.286,61.902,64.701,503.848,51.806,41.851,162.232
2015-11-01,1967.241,1541.209,31.533,76.381,100.795,503.718,76.568,137.252,28.445,57.106,37.355,31.38,245.495,107.799,114.256,109.688,117.623,80.648,60.872,64.601,503.186,51.839,41.919,163.221
2015-12-01,1961.7,1537.405,31.273,74.788,99.69,502.724,76.447,136.935,27.844,56.452,37.319,30.973,243.684,105.93,113.71,110.067,116.825,80.193,59.544,63.877,501.734,50.993,42.121,162.736
2016-01-01,1959.951,1537.898,30.906,74.118,99.575,502.822,76.623,136.161,27.65,56.699,37.732,30.504,242.97,104.736,112.437,105.763,115.725,79.954,58.934,62.465,501.526,50.927,39.722,162.871
2016-02-01,1956.748,1539.293,30.762,74.155,99.204,503.51,76.713,135.331,27.25,57.064,38.061,30.112,241.358,101.98,112.526,106.561,115.312,80.24,58.923,61.284,501.106,50.85,39.585,162.906
2016-03-01,1953.384,1541.814,30.357,74.138,99.141,503.699,76.135,134.954,27.148,57.588,38.081,31.109,240.747,105.574,111.961,106.903,115.581,80.15,58.86,60.018,501.394,50.873,39.302,163.53
2016-04-01,1949.387,1540.379,30.06,74.291,98.596,503.96,76.102,134.515,27.141,57.093,38.148,30.235,239.23,104.468,112.366,107.651,115.855,79.537,58.54,59.559,499.806,50.364,38.882,162.956
2016-05-01,1949.667,1535.261,29.756,74.303,97.806,503.611,75.871,134.959,26.996,56.535,37.978,29.841,240.725,102.989,112.347,107.219,115.141,80.182,57.981,59.237,499.627,49.873,38.281,162.05
2016-06-01,1947.8,1531.683,29.797,74.415,97.503,502.603,75.908,134.853,26.881,56.747,38.128,30.778,240.463,102.923,112.471,106.641,115.747,80.227,57.504,59.134,499.718,50.098,37.814,163.058
2016-07-01,1944.019,1531.533,29.983,74.257,97.462,502.004,75.786,135.007,26.716,56.842,38.02,29.848,241.693,102.801,112.3,106.63,115.902,80.293,56.902,59.412,500.124,50.005,37.536,163.401
2016-08-01,1944.993,1530.424,30.098,74.572,97.424,501.976,75.679,135.963,26.455,56.871,37.987,30.334,242.455,102.905,112.116,106.488,115.017,79.958,56.406,58.637,499.524,49.972,37.54,164.863
2016-09-01,1944.851,1531.895,30.253,74.9,97.197,501.207,75.894,136.26,26.536,57.242,37.988,30.551,243.164,103.119,112.038,106.824,116.246,79.962,56.45,58.28,500.023,49.87,37.473,164.314
2016-10-01,1944.622,1533.934,30.287,75.048,97.159,500.99,76.141,138.553,26.518,57.709,38.007,30.464,243.358,103.827,111.416,106.509,116.447,79.887,56.622,58.081,500.669,49.751,36.994,166.982
2016-11-01,1948.367,1534.308,30.168,75.617,97.345,502.457,76.251,137.238,26.497,57.124,38.12,30.503,243.077,103.731,111.015,106.193,115.926,79.883,56.825,58.026,501.434,50.0,36.623,165.442
2016-12-01,1949.342,1535.325,30.305,76.039,97.265,503.645,76.398,135.98,26.5,58.711,38.114,30.869,243.88,103.638,110.622,105.901,116.271,79.764,56.775,58.08,501.883,50.157,36.041,165.699
2017-01-01,1950.18,1535.783,31.09,76.663,97.075,504.142,76.445,136.482,26.165,58.86,37.995,31.355,243.869,103.966,110.063,105.368,117.068,79.776,56.81,58.199,502.912,50.374,36.495,164.581
2017-02-01,1949.495,1533.997,31.265,76.881,97.292,504.359,76.529,135.919,26.332,59.143,37.886,33.623,243.454,103.711,109.207,104.29,116.891,79.648,56.414,58.317,504.15,50.475,36.533,165.111
2017-03-01,1955.046,1540.08,31.723,76.965,97.392,504.212,76.524,136.319,26.342,60.799,37.751,32.974,243.056,103.26,108.751,104.487,117.22,79.643,56.38,58.337,505.205,50.41,36.453,166.144
2017-04-01,1954.714,1541.917,34.071,76.466,97.448,503.655,76.441,136.04,26.096,58.233,37.463,32.349,240.269,103.641,108.124,104.644,116.328,79.118,55.988,57.968,503.579,51.193,36.308,165.68
2017-05-01,1956.539,1541.885,32.369,76.765,97.777,506.515,76.846,136.399,26.259,58.454,37.594,32.495,243.896,105.189,108.744,104.772,115.078,79.379,55.903,57.968,506.246,51.562,36.334,166.815
2017-06-01,1959.584,1544.272,32.289,77.103,97.767,508.18,77.135,136.518,26.328,58.419,37.572,32.224,244.686,105.367,109.562,105.177,116.37,80.479,56.23,57.903,505.836,52.177,36.525,167.321
2017-07-01,1961.521,1547.743,32.396,77.612,97.432,509.679,77.391,136.022,26.534,58.161,37.706,31.981,244.645,105.614,110.067,105.052,117.905,80.363,56.299,57.99,506.788,52.573,36.63,167.036
2017-08-01,1960.828,1548.371,32.167,77.826,97.351,511.009,77.373,136.272,26.623,58.814,37.738,30.889,244.723,104.203,110.486,104.899,116.33,80.821,56.373,57.777,506.268,52.956,36.701,166.617
2017-09-01,1963.75,1548.439,31.898,77.879,97.42,513.081,77.55,137.802,26.598,59.329,37.545,30.929,244.583,103.038,111.071,104.717,116.704,81.506,56.051,57.672,507.749,53.419,36.844,169.041
2017-10-01,1967.263,1550.256,31.622,78.005,97.479,515.744,77.528,137.253,26.397,59.135,37.648,30.921,243.961,103.122,111.764,104.461,116.814,81.771,56.057,57.462,510.086,53.763,37.051,170.233
2017-11-01,1968.377,1555.116,31.584,78.381,97.004,517.406,77.433,134.844,26.409,59.944,37.609,31.181,244.874,104.109,112.657,105.067,116.931,82.136,55.91,57.448,511.265,53.978,37.256,170.772
2017-12-01,1969.643,1557.047,31.423,78.288,96.793,519.326,78.192,136.584,26.386,60.355,37.588,31.487,246.096,104.973,112.923,105.537,118.747,82.251,55.88,57.016,511.805,54.437,37.497,171.65
2018-01-01,1967.761,1555.22,31.375,77.874,96.253,519.42,78.571,135.898,27.058,60.462,37.729,30.477,244.984,105.338,114.184,104.309,117.201,82.189,55.634,56.867,510.736,54.209,37.777,172.624
2018-02-01,1966.002,1554.481,31.164,77.824,95.67,520.282,78.838,137.167,26.103,60.48,37.893,29.544,246.935,105.156,114.17,103.32,116.875,82.032,55.716,56.23,510.289,54.445,38.043,172.442
2018-03-01,1966.905,1556.281,30.836,78.071,95.742,520.881,79.027,136.969,26.247,60.551,38.138,29.243,248.532,105.921,114.625,104.033,116.758,82.115,55.594,56.16,510.607,54.616,38.239,172.566
2018-04-01,1966.53,1555.398,30.7,78.07,95.964,521.163,79.721,137.393,26.253,60.917,38.209,29.541,247.855,106.921,115.396,104.653,116.94,82.183,55.589,55.997,510.902,54.759,38.073,172.82
2018-05-01,1965.516,1555.214,30.452,77.579,95.659,519.205,79.099,136.093,26.26,61.405,38.233,29.269,247.603,106.166,116.176,104.406,116.916,82.118,55.204,56.17,510.307,54.458,38.112,172.328
2018-06-01,1957.124,1553.117,30.484,76.991,95.473,518.117,78.882,135.551,26.035,61.19,38.062,29.275,246.624,105.196,116.102,104.141,115.897,81.762,54.741,55.761,508.964,54.157,37.21,171.717
2018-07-01,1953.241,1548.455,30.368,76.264,95.379,517.46,78.315,135.891,25.801,60.872,37.868,29.674,247.308,104.678,116.146,104.181,116.273,81.635,54.212,55.828,508.372,54.074,36.964,173.094
2018-08-01,1949.522,1545.504,30.087,75.269,95.676,515.11,78.111,135.105,25.541,60.79,38.016,29.928,247.073,104.573,116.711,103.792,116.229,81.738,53.746,55.985,510.068,53.872,36.58,174.389
2018-09-01,1942.712,1542.166,29.668,74.583,96.129,512.683,77.888,133.265,25.164,60.992,37.677,30.11,246.369,103.365,116.601,103.523,115.854,81.413,53.542,55.542,507.915,53.627,36.157,172.491
2018-10-01,1935.705,1538.194,29.377,74.086,95.996,510.297,78.396,137.026,24.789,61.621,37.458,30.003,246.386,102.655,117.237,103.094,116.692,81.467,53.136,55.728,506.033,53.194,35.631,172.07
2018-11-01,1922.472,1531.542,29.034,73.466,94.019,508.429,77.754,136.146,24.799,62.369,37.17,29.591,245.409,101.957,117.879,102.744,117.113,80.83,52.967,55.9,503.331,52.889,35.292,171.636
2018-12-01,1919.673,1529.359,28.975,73.609,94.253,506.855,77.148,133.673,24.71,62.15,37.113,29.807,244.691,102.911,118.705,102.992,117.364,80.378,52.467,56.46,502.221,52.367,34.951,170.811
2019-01-01,1916.557,1525.578,29.199,73.321,94.648,506.318,76.267,133.656,24.619,61.443,37.049,29.431,244.22,102.792,118.701,102.888,116.627,80.259,52.937,56.967,501.524,52.225,35.136,170.634
2019-02-01,1917.963,1526.079,29.266,73.376,95.042,506.335,76.64,133.534,24.726,60.41,36.998,30.263,245.395,103.582,119.965,102.822,116.68,80.683,53.097,57.361,502.256,52.084,34.763,169.881